Regional Weather Roundup
Issued by NWS

Home | Current Version | Previous Version | Graphics & Text | Print | Product List | Glossary On
Versions: 1 2 3 4 5 6 7 8 9 10 11 12 13 14 15 16 17 18 19 20 21 22 23 24 25 26 27 28 29 30 31 32 33 34 35 36 37 38 39 40 41 42 43 44 45 46 47 48 49 50
786
ASUS43 KLMK 310202
RWRKY
KENTUCKY REGIONAL WEATHER ROUNDUP
NATIONAL WEATHER SERVICE LOUISVILLE KY
1000 PM EDT MON MAY 30 2016

NOTE "FAIR" INDICATES FEW OR NO CLOUDS BELOW 12,000 FEET
WITH NO SIGNIFICANT WEATHER AND/OR OBSTRUCTIONS TO VISIBILITY.

KYZ001>023-026-027-061>063-070>075-310300-
WESTERN AND SOUTH CENTRAL KENTUCKY

CITY           SKY/WX    TMP DP  RH WIND       PRES   REMARKS
PADUCAH        CLEAR     73  64  73 CALM      29.97S
HENDERSON      CLOUDY    73  63  68 NE3       29.97R
OWENSBORO      CLOUDY    80  61  52 N3        29.98S
HOPKINSVILLE   NOT AVBL
BOWLING GREEN  CLOUDY    75  59  57 CALM      29.98R
GLASGOW        NOT AVBL
$$

KYZ024-025-028>034-038-045-046-053-310300-
NORTH CENTRAL KENTUCKY

CITY           SKY/WX    TMP DP  RH WIND       PRES   REMARKS
LOUISVILLE/SDF PTCLDY    81  54  39 CALM      29.97S
LOUISVILLE/LOU PTCLDY    79  57  46 CALM      29.98S
FORT KNOX      NOT AVBL
$$

KYZ035>037-039>044-047>052-055>060-089>105-310300-
NORTHEAST KENTUCKY

CITY           SKY/WX    TMP DP  RH WIND       PRES   REMARKS
LEXINGTON      CLEAR     74  60  61 CALM      30.00R
COVINGTON      PTCLDY    73  59  61 NW5       29.98S
FRANKFORT      CLEAR     70  59  68 CALM      29.98S
$$

KYZ054-064>069-076>088-106>120-310300-
SOUTHEAST KENTUCKY

CITY           SKY/WX    TMP DP  RH WIND       PRES   REMARKS
JACKSON        CLEAR     72  60  66 CALM      30.02R
LONDON         CLEAR     72  61  68 CALM      30.01R
SOMERSET       NOT AVBL
MIDDLESBORO    NOT AVBL
MONTICELLO     CLEAR     68  65  90 VRB5      30.02R
$$





USA.gov is the U.S. government's official web portal to all federal, state and local government web resources and services.